Вернуться в каталог

STARLINK-38032

АктивенСвязьVLEO
NORAD 100020·PAYLOAD·🇺🇸 United States

Запущен Jul 14, 2026 с Vandenberg Space Force Base

Loading…

Ближайшие Пролёты (ближайшие 24 часа)

TLE

СвежийSource: Space-Track

Эпоха: Sep 14, 2026, 06:18 UTC

1 A0020U 26160V   26257.26277784  .00188693  00000-0  11051-2 0  9997
2 A0020  70.0010 212.4090 0004153 268.7455  91.3269 15.77621652 11015

Отслеживайте STARLINK-38032 в реальном времени с AllMySat

Download on the App Store